This demonstration page uses our WeatherBlox Daily Observations layout. Learn more.

Left ArrowRight Arrow

34.02893, -84.19858

Hourly Observations for March 31, 2019

Temp ( °F °C ) Dew Point ( °F °C ) Humidity (%) Winds ( mph kmh ) Pressure ( in mb ) Visibility ( mi km ) Precip ( " mm )
12:53 am 00:53 Cloudy 68 20 49 9.4 51 51 SW 17 28 29.85 1011 10 16 0.00 0.00
1:53 am 01:53 Mostly Cloudy 66 18.9 51 10.6 59 59 SSW 17 28 29.83 1010 10 16 0.00 0.00
2:53 am 02:53 Cloudy 66 18.9 53 11.7 63 63 SW 13 20 29.83 1010 10 16 0.00 0.00
3:38 am 03:38 Cloudy 63 17.2 55 12.8 76 76 WNW 20 31 29.86 1011 10 16 0.00 0.03
3:53 am 03:53 Cloudy 61 16.1 56 13.3 84 84 NW 15 24 29.85 1011 10 16 0.00 0.03
4:12 am 04:12 Cloudy with Light Rain 59 15 56 13.3 90 90 NW 17 28 29.89 1012 9 14 0.00 0.03
4:40 am 04:40 Cloudy 55 12.8 53 11.7 93 93 WNW 13 20 29.92 1013 8 13 0.00 0.03
4:48 am 04:48 Cloudy 55 13 54 12 94 94 NW 10 17 29.92 1013 10 16 0.00 0.03
4:53 am 04:53 Cloudy 55 12.8 52 11.1 90 90 WNW 12 19 29.89 1012 10 16 0.00 0.03
5:26 am 05:26 Cloudy with Light Rain 53 11.7 50 10 89 89 NNW 15 24 29.93 1014 10 16 0.01 0.25
5:53 am 05:53 Cloudy with Light Rain 51 10.6 49 9.4 92 92 NNW 16 26 29.91 1013 10 16 0.02 0.51
6:53 am 06:53 Cloudy with Light Rain 46 7.8 44 6.7 93 93 NNW 14 22 29.94 1014 6 10 0.05 1.27
7:53 am 07:53 Cloudy 43 6.1 40 4.4 89 89 NNW 17 28 29.99 1016 10 16 0.01 0.25
8:09 am 08:09 Cloudy 42 5.6 40 4.4 92 92 NW 17 28 30.03 1017 10 16 0.00 0.00
8:46 am 08:46 Cloudy 42 5.6 39 3.9 89 89 NNW 18 30 30.07 1018 10 16 0.00 0.00
8:53 am 08:53 Cloudy 42 5.6 39 3.9 89 89 NW 13 20 30.04 1017 10 16 0.00 0.00
9:53 am 09:53 Cloudy 43 6.1 38 3.3 82 82 NW 15 24 30.05 1018 10 16 0.00 0.00
10:11 am 10:11 Cloudy 43 6.1 37 2.8 80 80 NW 10 17 30.09 1019 10 16 0.00 0.00
10:53 am 10:53 Cloudy 43 6.1 36 2.2 76 76 WNW 13 20 30.09 1019 10 16 0.00 0.00
11:53 am 11:53 Cloudy 44 6.7 35 1.7 71 71 NW 13 20 30.11 1020 10 16 0.00 0.00
12:53 pm 12:53 Partly Cloudy 47 8.3 34 1.1 61 61 NW 17 28 30.09 1019 10 16 0.00 0.00
1:53 pm 13:53 Sunny 49 9.4 32 0 52 52 N 18 30 30.08 1019 10 16 0.00 0.00
2:53 pm 14:53 Sunny 50 10 32 0 50 50 NNW 14 22 30.07 1018 10 16 0.00 0.00
3:53 pm 15:53 Sunny 51 10.6 30 -1.1 44 44 NW 14 22 30.07 1018 10 16 0.00 0.00
4:53 pm 16:53 Sunny 51 10.6 28 -2.2 41 41 WNW 13 20 30.09 1019 10 16 0.00 0.00
5:53 pm 17:53 Sunny 50 10 28 -2.2 43 43 NW 15 24 30.11 1020 10 16 0.00 0.00
6:53 pm 18:53 Sunny 50 10 25 -3.9 38 38 NW 16 26 30.12 1020 10 16 0.00 0.00
7:53 pm 19:53 Sunny 49 9.4 25 -3.9 39 39 NW 13 20 30.14 1021 10 16 0.00 0.00
8:53 pm 20:53 Clear 47 8.3 25 -3.9 42 42 NW 8 13 30.15 1021 10 16 0.00 0.00
9:53 pm 21:53 Clear 46 7.8 26 -3.3 46 46 NNW 10 17 30.17 1022 10 16 0.00 0.00
10:53 pm 22:53 Clear 45 7.2 25 -3.9 46 46 NNW 12 19 30.18 1022 10 16 0.00 0.00
11:53 pm 23:53 Clear 43 6.1 25 -3.9 49 49 NNW 9 15 30.19 1022 10 16 0.00 0.00

Powered by AerisWeather